Monterey, CA

9:19 PM PDT on July 26, 2017 (GMT -0700)
Monterey Peninsula

Weather History for KMRY - January, 2011

Change the Weather History Date:

Saturday, January 1, 2011

  Actual Average Record
Temperature  
Mean Temperature 53 °F 51 °F  
Max Temperature 60 °F 60 °F 73 °F (2008)
Min Temperature 46 °F 42 °F 31 °F (2016)
Degree Days  
Heating Degree Days 12    
Month to date heating degree days 12  
Since 1 July heating degree days 1390  
Cooling Degree Days 0    
Month to date cooling degree days 0  
Year to date cooling degree days 0  
Growing Degree Days 2 (Base 50)    
Moisture  
Dew Point 45 °F    
Average Humidity 74    
Maximum Humidity 86    
Minimum Humidity 62    
Precipitation  
Precipitation 0.56 in - 0.69 in (2006)
Month to date precipitation 0.56  
Year to date precipitation 0.56  
Since 1 July precipitation 7.54  
Sea Level Pressure  
Sea Level Pressure 30.06 in    
Wind  
Wind Speed 4 mph (East)    
Max Wind Speed 21 mph    
Max Gust Speed 25 mph    
Visibility 9 miles    
Events Rain    
T = Trace of Precipitation, MM = Missing Value Source: NWS Daily Summary

Daily Weather History Graph

Daily Weather History Graph

Search for Another Location

Airport or City:

Trip Planner

Search our weather history database for the weather conditions in past years. The results will help you decide how hot, cold, wet, or windy it might be!

Date:

Astronomy

Jan. 01, 2011 Rise Set
Actual Time 7:19 AM PST 5:02 PM PST
Civil Twilight 6:50 AM PST 5:31 PM PST
Nautical Twilight 6:18 AM PST 6:03 PM PST
Astronomical Twilight 5:47 AM PST 6:34 PM PST
Moon 4:57 AM PST (1/1) 2:44 PM PST (1/1)
Length of Visible Light 10h 40m
Length of Day
9h 42m
Waning Crescent, 7% of the Moon is Illuminated
Jan 1
Waning Crescent
Jan 4
New
Jan 12
First Quarter
Jan 19
Full
Jan 26
Last Quarter

Hourly Weather History & Observations

Time (PST) Temp. Windchill Dew Point Humidity Pressure Visibility Wind Dir Wind Speed Gust Speed Precip Events Conditions
12:54 AM 46.9 °F - 42.1 °F 83% 30.10 in 10.0 mi Calm Calm - N/A   Overcast
1:54 AM 46.9 °F - 42.1 °F 83% 30.09 in 10.0 mi Calm Calm - N/A   Overcast
2:54 AM 46.4 °F - 41.0 °F 81% 30.02 in 10.0 mi Calm Calm - N/A   Overcast
3:54 AM 46.9 °F - 42.1 °F 83% 30.07 in 3.0 mi Calm Calm - 0.05 in Rain Heavy Rain
4:02 AM 46.4 °F 45.2 °F 42.8 °F 87% 30.03 in 2.5 mi SE 3.5 mph - 0.04 in Rain Heavy Rain
4:13 AM 46.4 °F 43.5 °F 42.8 °F 87% 30.02 in 5.0 mi East 5.8 mph - 0.07 in Rain Light Rain
4:54 AM 46.9 °F - 43.0 °F 86% 30.05 in 9.0 mi East 6.9 mph - 0.08 in Rain Rain
5:54 AM 48.0 °F - 43.0 °F 83% 30.05 in 10.0 mi Calm Calm - 0.01 in   Overcast
6:54 AM 48.0 °F - 44.1 °F 86% 30.06 in 10.0 mi SSW 3.5 mph - 0.00 in   Overcast
7:54 AM 48.0 °F - 44.1 °F 86% 30.09 in 10.0 mi Calm Calm - 0.00 in   Overcast
8:54 AM 50.0 °F - 45.0 °F 83% 30.11 in 10.0 mi Calm Calm - N/A   Overcast
9:54 AM 51.1 °F - 45.0 °F 80% 30.13 in 10.0 mi Calm Calm - N/A   Overcast
10:54 AM 52.0 °F - 45.0 °F 77% 30.14 in 10.0 mi Variable 3.5 mph - 0.00 in Rain Light Rain
11:54 AM 53.6 °F - 46.4 °F 77% 30.07 in 10.0 mi NE 5.8 mph - N/A   Mostly Cloudy
12:54 PM 57.9 °F - 46.9 °F 67% 30.08 in 10.0 mi NE 4.6 mph - N/A   Overcast
1:54 PM 57.0 °F - 46.0 °F 67% 30.07 in 10.0 mi Calm Calm - N/A   Mostly Cloudy
2:54 PM 59.0 °F - 46.9 °F 64% 30.06 in 10.0 mi East 4.6 mph - N/A   Overcast
3:54 PM 57.9 °F - 46.9 °F 67% 30.06 in 10.0 mi Calm Calm - N/A   Overcast
4:54 PM 55.9 °F - 45.0 °F 67% 30.06 in 10.0 mi NNE 3.5 mph - N/A   Overcast
5:54 PM 55.9 °F - 46.0 °F 69% 30.06 in 10.0 mi Calm Calm - N/A   Overcast
6:54 PM 52.0 °F - 43.0 °F 71% 30.06 in 10.0 mi NNE 5.8 mph - 0.00 in Rain Light Rain
7:54 PM 50.0 °F - 46.0 °F 86% 30.06 in 6.0 mi NE 4.6 mph - 0.17 in Rain Light Rain
8:54 PM 52.0 °F - 46.9 °F 83% 30.05 in 4.0 mi East 17.3 mph - 0.13 in Rain Heavy Rain
9:54 PM 51.1 °F - 46.9 °F 86% 30.03 in 10.0 mi East 11.5 mph - 0.04 in Rain Light Rain
10:54 PM 52.0 °F - 46.9 °F 83% 30.02 in 10.0 mi ESE 8.1 mph - 0.03 in   Mostly Cloudy
11:54 PM 53.1 °F - 46.0 °F 77% 30.00 in 10.0 mi ESE 13.8 mph - 0.03 in   Overcast